Redding, CA

7:33 PM PST on February 21, 2018 (GMT -0800)
Redding Municipal

Weather History for KRDD - January, 2013

Change the Weather History Date:

Friday, January 18, 2013

  Actual Average Record
Temperature  
Mean Temperature 47 °F -  
Max Temperature 69 °F 55 °F 73 °F (1989)
Min Temperature 25 °F 37 °F 25 °F (2013)
Degree Days  
Heating Degree Days 18    
Cooling Degree Days 0    
Moisture  
Dew Point 24 °F    
Average Humidity 50    
Maximum Humidity 85    
Minimum Humidity 15    
Precipitation  
Precipitation 0.00 in 0.19 in 1.96 in (1996)
Month to date precipitation 0.13 3.57  
Year to date precipitation 0.13 3.57  
Since 1 July precipitation 19.29  
Sea Level Pressure  
Sea Level Pressure 30.21 in    
Wind  
Wind Speed 0 mph (NNW)    
Max Wind Speed 5 mph    
Max Gust Speed 6 mph    
Visibility 10 miles    
Events      
T = Trace of Precipitation, MM = Missing Value Source: NWS Daily Summary

Daily Weather History Graph

Daily Weather History Graph

Search for Another Location

Airport or City:

Trip Planner

Search our weather history database for the weather conditions in past years. The results will help you decide how hot, cold, wet, or windy it might be!

Date:

Astronomy

Jan. 18, 2013 Rise Set
Actual Time 7:28 AM PST 5:10 PM PST
Civil Twilight 6:59 AM PST 5:40 PM PST
Nautical Twilight 6:25 AM PST 6:14 PM PST
Astronomical Twilight 5:53 AM PST 6:46 PM PST
Moon 11:08 AM PST (1/18) 12:08 AM PST (1/18)
Length of Visible Light 10h 41m
Length of Day
9h 41m
Waxing Crescent, 48% of the Moon is Illuminated
Jan 18
Waxing Crescent
Jan 18
First Quarter
Jan 26
Full
Feb 3
Last Quarter
Feb 9
New

Hourly Weather History & Observations

Time (PST) Temp. Windchill Dew Point Humidity Pressure Visibility Wind Dir Wind Speed Gust Speed Precip Events Conditions
12:53 AM 33.1 °F - 27.0 °F 78% 30.23 in 10.0 mi Calm Calm - N/A   Clear
1:53 AM 28.0 °F - 24.1 °F 85% 30.23 in 10.0 mi Calm Calm - N/A   Clear
2:53 AM 28.9 °F - 24.1 °F 82% 30.23 in 10.0 mi Calm Calm - N/A   Clear
3:53 AM 28.9 °F - 24.1 °F 82% 30.22 in 10.0 mi Calm Calm - N/A   Clear
4:53 AM 27.0 °F - 23.0 °F 85% 30.22 in 10.0 mi Calm Calm - N/A   Clear
5:53 AM 26.1 °F - 21.0 °F 81% 30.22 in 10.0 mi Calm Calm - N/A   Clear
6:53 AM 26.1 °F - 21.0 °F 81% 30.24 in 7.0 mi Calm Calm - N/A   Clear
7:53 AM 26.1 °F - 21.0 °F 81% 30.25 in 10.0 mi Calm Calm - N/A   Clear
8:53 AM 32.0 °F - 26.1 °F 79% 30.27 in 10.0 mi Calm Calm - N/A   Clear
9:53 AM 37.9 °F - 30.0 °F 73% 30.28 in 10.0 mi Calm Calm - N/A   Clear
10:53 AM 46.9 °F - 30.9 °F 54% 30.27 in 10.0 mi Calm Calm - N/A   Clear
11:53 AM 57.0 °F - 30.9 °F 37% 30.23 in 10.0 mi Calm Calm - N/A   Clear
12:53 PM 61.0 °F - 30.0 °F 31% 30.20 in 10.0 mi Calm Calm - N/A   Clear
1:53 PM 66.0 °F - 24.1 °F 20% 30.18 in 10.0 mi Calm Calm - N/A   Clear
2:53 PM 68.0 °F - 19.9 °F 16% 30.16 in 10.0 mi Calm Calm - N/A   Clear
3:53 PM 68.0 °F - 17.1 °F 14% 30.16 in 10.0 mi Calm Calm - N/A   Clear
4:53 PM 63.0 °F - 19.0 °F 18% 30.17 in 10.0 mi North 3.5 mph - N/A   Clear
5:53 PM 57.0 °F - 19.0 °F 23% 30.17 in 10.0 mi North 5.8 mph - N/A   Clear
6:53 PM 55.0 °F - 18.0 °F 23% 30.18 in 10.0 mi NW 5.8 mph - N/A   Clear
7:53 PM 46.0 °F 44.8 °F 26.1 °F 46% 30.19 in 10.0 mi NW 3.5 mph - N/A   Clear
8:53 PM 41.0 °F - 27.0 °F 57% 30.19 in 10.0 mi Calm Calm - N/A   Clear
9:53 PM 42.1 °F - 26.1 °F 53% 30.19 in 10.0 mi Calm Calm - N/A   Clear
10:53 PM 39.0 °F - 25.0 °F 57% 30.19 in 10.0 mi Calm Calm - N/A   Clear
11:53 PM 36.0 °F - 24.1 °F 62% 30.19 in 10.0 mi Calm Calm - N/A   Clear